Theta_e
309 309 310 311 313 314 314 315 317 318 318 317 314 311 310 311 313 314 315 315 321 320 320 323 325 329 330 327 342 344 345 348 347 345 348 345 346 342 346 345 344 345 341 340 341
309 309 310 312 313 314 314 317 319 319 318 317 314 311 310 310 312 314 315 315 321 320 319 320 325 327 325 330 345 346 346 348 346 343 345 344 345 346 344 345 345 342 341 342 342
309 309 310 312 313 314 316 318 319 319 317 315 313 310 310 313 317 322 316 315 320 320 319 320 324 321 324 333 341 346 348 348 343 342 344 345 346 344 343 346 345 342 341 342 341
309 309 310 312 313 314 317 319 319 316 312 312 311 313 320 327 326 327 326 319 319 320 319 319 321 324 323 339 346 348 344 345 343 343 346 346 345 346 343 344 344 342 340 341 340
308 309 310 311 313 315 317 319 320 318 312 312 318 322 325 327 326 323 324 325 323 321 318 322 324 323 319 338 345 344 344 344 343 345 343 341 346 347 346 345 344 342 340 341 341
308 309 310 311 313 315 318 320 320 319 319 321 321 323 325 326 325 322 316 318 321 323 317 321 322 322 343 341 341 340 347 344 346 343 342 342 344 346 345 347 343 343 341 342 341
309 309 310 311 313 316 318 321 321 320 319 320 322 324 325 325 324 324 319 316 319 315 319 320 319 323 343 342 343 344 344 345 346 345 345 345 347 347 346 346 344 344 343 342 342
310 309 310 311 314 317 319 322 323 321 321 321 322 322 328 327 324 323 323 320 318 318 319 318 318 335 345 341 343 339 340 342 342 346 344 341 346 344 344 346 345 343 342 342 342
312 310 310 311 315 319 321 323 325 325 322 322 322 322 324 326 323 322 323 323 323 320 319 318 320 344 342 340 339 340 339 343 345 342 343 340 341 343 344 345 346 344 342 341 341
316 313 310 311 316 320 322 324 324 326 326 325 325 324 324 325 323 324 324 324 322 320 317 317 318 315 320 336 341 341 343 345 346 347 344 342 340 341 344 345 345 345 343 342 341
318 316 312 311 315 320 322 325 323 323 322 324 325 325 325 325 323 324 324 322 319 318 314 315 314 317 319 330 323 339 343 345 346 347 345 344 341 340 341 344 343 343 342 343 343
319 318 316 311 314 319 321 324 322 318 319 324 324 325 325 323 322 322 323 322 319 315 315 313 314 314 318 319 321 325 341 342 342 347 343 344 344 340 339 341 343 343 341 342 343
318 318 317 314 312 317 320 323 321 320 321 324 325 326 326 326 324 321 322 322 316 314 315 314 316 314 317 318 339 338 338 342 341 346 344 343 341 341 339 339 342 343 342 342 342
317 318 318 316 314 316 320 323 322 323 318 322 326 327 325 324 322 321 321 320 317 316 313 314 315 316 315 317 331 338 338 341 347 340 338 342 342 341 340 339 342 343 342 342 342
318 317 318 318 316 314 318 322 323 323 325 325 326 325 325 323 322 322 322 320 320 320 318 320 321 317 318 318 334 334 340 339 341 337 340 345 342 338 340 341 339 340 342 342 343
319 318 317 318 318 314 314 321 323 320 327 327 324 322 322 322 321 320 321 321 320 320 318 319 320 322 322 328 332 331 332 331 328 334 338 336 344 339 341 341 339 338 338 341 342
320 318 318 318 318 315 316 323 317 323 323 325 323 321 321 320 320 320 320 319 318 320 319 319 322 320 321 319 320 325 322 328 335 339 339 330 343 337 335 340 339 339 338 337 339
321 319 318 318 318 316 317 317 321 321 323 323 321 320 321 319 320 319 318 317 317 317 316 322 323 322 320 320 321 327 318 320 325 330 330 332 338 333 337 339 339 339 340 339 337
321 319 318 319 318 315 321 317 315 316 323 322 319 321 321 322 320 319 317 316 317 315 319 322 323 322 323 319 318 318 320 317 325 328 331 331 333 332 340 340 338 340 338 340 340
320 318 319 318 315 313 317 317 317 319 322 321 321 320 319 320 320 318 318 319 320 316 319 320 325 322 323 321 321 321 320 326 323 334 336 332 335 335 338 338 340 336 340 339 340
319 316 317 316 313 316 317 316 317 321 322 322 321 322 318 320 318 318 320 324 322 320 321 318 320 323 322 322 323 322 326 324 323 324 329 331 329 328 334 335 335 337 339 339 339
319 312 316 312 312 310 312 314 319 320 321 319 320 319 319 319 322 323 323 323 323 322 323 319 315 320 324 319 317 320 325 323 324 330 326 325 327 327 335 334 337 339 341 342 341
318 315 315 316 313 313 313 317 318 318 318 319 321 318 319 321 323 324 323 322 323 321 320 319 317 318 319 318 318 319 322 319 319 323 331 329 327 330 333 334 336 338 340 338 342
316 312 321 321 317 317 320 321 321 322 320 320 320 319 319 318 316 322 324 323 323 325 321 319 312 316 317 319 318 321 320 326 321 326 326 326 327 328 333 333 334 339 339 335 338
315 313 319 320 320 320 319 319 322 323 322 321 320 318 319 319 320 321 322 322 321 320 314 312 315 315 314 317 319 320 320 320 321 319 323 321 326 325 331 331 332 334 338 331 335
315 318 317 316 318 318 317 320 322 322 321 322 321 321 316 317 318 321 320 320 319 321 316 310 312 318 321 320 319 322 325 323 326 322 325 328 325 324 331 333 332 336 337 335 334
316 317 315 316 317 318 317 322 323 321 321 322 322 321 320 318 320 321 322 323 319 317 316 315 315 317 321 318 319 321 326 326 331 333 331 331 328 335 333 333 333 334 333 330 335
Wind_Speed
10 10 9 9 10 12 13 14 14 14 11 8 5 4 3 5 6 6 5 5 10 8 5 5 5 2 3 3 3 2 3 3 4 5 6 8 2 14 7 12 3 3 11 20 23
10 10 9 9 10 12 14 15 15 14 11 8 5 2 2 3 5 6 4 10 11 7 5 4 3 2 1 1 1 3 2 1 2 7 7 8 10 7 4 13 5 13 14 22 22
11 10 9 9 11 12 14 16 16 13 10 6 3 2 1 1 4 2 5 11 11 8 5 5 4 2 2 1 0 1 2 3 8 18 22 13 4 5 2 3 6 20 24 24 22
11 10 9 9 11 12 14 15 15 13 8 4 4 5 5 5 3 4 4 7 9 7 6 7 4 1 1 2 2 2 3 5 11 16 10 9 2 6 7 0 7 22 27 27 22
11 10 10 10 10 12 13 14 13 13 11 8 8 7 4 2 3 3 3 7 10 9 9 9 5 1 1 3 5 3 6 9 13 11 12 8 4 4 7 7 14 26 26 25 20
12 11 10 10 10 11 12 12 10 9 9 7 7 7 3 1 1 4 1 6 10 11 12 8 2 3 5 3 3 4 10 14 12 11 9 8 4 2 7 7 21 26 27 25 22
13 12 11 10 10 11 12 11 9 6 5 5 7 8 2 0 0 2 7 6 9 11 10 3 2 4 7 4 8 13 5 5 6 12 5 10 2 4 15 14 23 23 27 25 23
15 13 11 11 10 10 12 12 12 6 4 5 7 9 2 3 2 1 1 5 9 9 6 2 3 8 3 13 4 3 4 3 2 4 2 5 2 4 10 13 19 26 25 24 25
17 15 13 11 10 10 12 17 9 7 6 8 9 5 2 4 4 4 3 3 3 3 3 0 3 6 7 4 4 5 1 3 2 3 3 2 2 5 20 14 17 22 25 23 25
18 16 14 12 10 9 13 11 13 4 4 9 4 1 0 3 8 6 2 2 1 5 4 2 4 4 3 3 3 4 2 2 4 4 2 3 1 3 9 17 15 21 25 27 27
19 17 14 12 9 9 11 10 11 2 16 5 8 6 5 5 8 6 3 3 5 4 2 3 4 5 10 6 2 4 3 2 2 5 3 5 5 7 10 9 11 13 23 27 33
21 19 16 11 9 8 6 5 8 10 10 8 6 11 8 6 4 8 6 3 3 2 2 6 4 8 3 4 2 2 1 3 1 4 2 2 4 4 10 7 16 12 19 28 29
22 21 17 14 8 6 4 2 12 16 2 7 4 3 2 10 5 11 10 5 4 4 5 6 4 7 7 4 5 3 4 3 0 4 1 0 1 5 7 13 20 18 21 20 30
24 22 19 14 5 5 2 4 14 7 4 6 2 2 6 4 2 12 13 4 2 7 6 5 4 6 5 5 6 2 7 6 6 3 0 3 3 2 4 5 16 27 26 24 26
24 24 20 15 12 6 4 6 12 2 2 2 3 2 7 6 4 6 14 6 4 5 4 7 4 5 3 6 7 4 8 6 3 4 1 1 3 4 1 5 10 18 31 30 28
24 24 21 17 11 6 7 4 5 5 4 2 5 4 5 1 1 5 6 8 1 3 1 6 3 4 7 5 6 10 8 8 5 3 4 3 2 4 3 5 4 21 29 36 32
25 24 22 17 10 4 5 2 5 3 4 1 4 3 4 4 3 4 4 2 3 2 4 5 1 4 4 7 4 6 6 4 3 3 5 4 2 7 5 5 8 10 25 31 36
27 25 21 14 11 7 7 4 3 4 5 3 2 2 5 7 3 2 5 2 3 4 3 3 6 1 1 6 8 7 7 6 5 4 3 4 4 5 5 5 13 13 19 31 36
27 24 16 8 8 15 11 3 7 6 2 4 3 3 3 4 4 4 7 5 6 8 6 4 4 3 2 3 7 5 3 4 7 3 2 2 6 5 3 5 7 8 3 18 29
29 24 6 8 10 20 4 6 5 4 3 2 1 1 5 3 6 7 6 4 5 9 2 5 2 3 4 4 7 4 5 3 3 4 2 4 5 4 5 8 5 5 10 14 23
23 12 11 4 16 11 4 7 6 8 5 1 2 2 5 4 8 6 7 3 3 4 5 4 3 5 3 4 1 3 1 7 5 3 5 1 6 6 4 4 5 5 7 11 19
11 3 4 15 2 2 3 5 4 4 3 2 2 6 3 2 1 4 8 5 8 10 5 1 5 2 1 4 2 1 3 5 5 4 1 3 5 2 6 8 6 7 6 6 12
18 6 5 7 1 2 4 3 4 4 5 3 3 5 4 2 1 4 5 1 12 5 8 7 2 3 6 6 5 4 3 4 5 3 5 5 5 1 3 4 5 7 6 4 6
7 3 2 2 2 1 4 3 3 3 4 5 5 3 1 3 4 5 3 2 3 4 10 7 3 5 7 6 3 0 2 3 4 3 5 5 4 5 6 6 8 9 7 1 2
3 2 1 3 2 2 1 3 1 3 3 3 2 6 5 4 3 4 2 2 6 6 4 5 4 3 4 4 2 3 2 3 6 5 6 4 7 6 8 8 10 5 6 0 2
4 3 5 4 8 3 1 1 0 2 2 4 4 4 6 6 7 9 7 3 6 1 3 3 2 3 4 2 4 1 3 4 3 2 6 3 6 6 7 11 5 10 5 4 6
4 4 3 5 3 1 3 1 2 3 6 11 4 5 5 9 16 19 14 22 12 9 4 4 6 3 4 2 3 4 4 3 2 1 2 4 4 2 2 6 9 6 3 3 3
Wind_Direction
13 15 18 15 10 8 4 360 354 347 344 340 331 315 285 248 246 235 232 164 166 148 160 154 149 180 282 7 23 61 85 155 191 143 127 142 189 237 271 168 127 336 147 158 155
8 9 11 11 7 3 359 355 351 345 338 332 332 332 303 269 253 247 179 169 164 159 141 145 180 208 356 45 49 52 64 32 157 128 132 137 208 204 176 157 97 106 135 156 158
4 5 7 5 2 0 358 354 354 352 346 341 357 34 51 102 115 55 174 173 170 159 157 140 169 235 36 117 38 74 76 49 75 123 140 158 186 230 146 193 204 158 155 163 162
2 3 2 1 358 357 357 358 1 4 14 40 66 81 79 98 111 103 101 179 183 178 167 157 201 284 100 148 151 81 28 124 129 138 121 138 330 260 190 40 221 176 166 166 168
1 1 359 356 357 356 358 4 14 25 44 74 73 53 51 76 72 357 271 213 198 177 171 164 169 222 81 182 114 79 95 107 133 133 128 118 6 63 196 238 179 166 172 175 172
3 0 359 355 354 353 355 4 13 25 39 41 36 16 19 52 72 15 359 193 185 176 172 170 119 116 90 87 151 141 119 126 143 129 148 128 261 147 208 164 170 172 177 182 182
3 0 356 352 350 350 350 358 1 353 11 10 356 351 281 135 176 344 57 122 154 160 156 151 23 187 140 106 102 104 85 86 139 147 159 181 219 119 171 170 171 175 183 190 195
1 359 354 348 347 349 345 346 335 325 329 336 335 331 277 219 258 270 70 104 127 149 140 85 28 118 110 122 72 111 95 139 219 192 103 175 169 193 161 167 181 183 189 200 201
1 355 349 342 342 347 342 344 346 311 303 316 317 327 334 305 197 177 154 110 103 164 171 14 89 93 110 78 17 16 173 98 168 244 135 133 189 192 181 194 191 180 195 201 208
358 354 346 335 334 340 346 352 351 324 276 315 312 334 188 17 159 142 151 231 147 158 143 142 89 80 47 97 201 228 244 186 159 191 148 130 175 145 189 183 194 189 203 209 211
352 351 346 330 319 324 354 358 1 349 318 253 271 270 319 126 187 194 199 149 137 116 106 35 88 189 212 189 160 136 188 218 149 176 132 200 164 195 158 184 169 197 208 214 217
349 346 344 330 303 305 356 26 24 337 306 320 282 252 235 182 173 211 190 164 121 126 88 22 254 222 171 192 256 287 167 194 45 149 60 147 228 199 175 184 192 197 211 216 214
346 344 342 334 303 283 335 34 345 331 271 298 292 274 175 186 202 176 185 177 132 138 176 165 236 148 150 175 170 208 200 142 100 123 195 142 288 147 224 176 193 210 213 213 215
343 341 341 343 311 289 267 315 338 330 51 281 270 206 162 161 216 182 197 163 162 193 161 230 258 182 173 194 161 206 206 116 121 89 71 50 293 191 229 190 197 195 208 213 215
339 336 336 334 310 298 240 305 331 324 13 209 204 180 183 162 147 194 197 215 205 181 120 254 159 139 149 220 155 232 104 114 122 93 115 342 65 272 126 187 214 211 206 207 211
334 331 327 323 311 289 248 281 319 42 256 314 164 161 116 240 255 124 174 218 253 166 246 248 276 178 188 52 110 120 81 47 54 46 6 322 113 278 219 208 206 210 213 211 207
328 325 319 310 297 284 182 202 38 155 307 284 220 167 163 203 230 144 156 209 181 84 351 330 285 310 116 78 54 78 60 27 16 13 225 344 38 246 248 260 234 253 221 214 212
326 322 314 303 270 210 175 65 195 239 241 307 27 105 183 158 239 126 126 254 229 101 97 98 331 21 138 161 178 172 157 150 180 188 243 29 235 262 213 284 311 295 233 210 212
328 325 320 301 223 182 172 114 208 210 243 342 359 160 233 237 164 153 182 197 228 174 156 139 272 298 345 129 125 198 178 168 103 2 70 240 294 301 252 279 346 343 191 210 212
335 329 334 305 197 176 110 216 219 220 320 68 115 184 188 239 164 152 171 211 214 199 136 191 55 39 311 93 42 123 140 80 15 128 237 299 283 242 250 260 235 255 225 218 211
339 326 345 152 157 176 173 216 233 247 250 96 182 337 246 228 171 177 197 264 197 101 83 128 99 299 28 26 199 54 60 55 109 99 150 189 274 212 191 176 216 267 263 240 227
350 338 340 136 114 69 176 199 210 242 191 280 161 215 227 292 184 179 190 233 152 139 136 139 125 123 172 318 286 173 135 136 122 210 100 139 273 205 169 178 181 205 251 272 259
332 290 213 277 145 280 292 268 246 208 230 191 244 219 216 249 189 181 167 102 148 124 163 187 35 50 1 353 349 54 78 99 103 94 185 138 261 73 169 217 237 224 226 324 302
327 334 307 209 132 103 11 271 264 291 259 223 229 161 249 270 188 208 136 92 131 118 116 101 96 147 189 208 166 254 47 155 104 119 167 220 265 277 237 211 190 203 218 151 358
292 288 332 318 336 349 296 301 314 342 323 310 270 212 166 258 148 200 121 76 40 130 71 103 133 155 194 217 216 183 232 196 187 188 159 243 210 262 246 227 219 184 199 51 323
275 322 329 283 298 323 151 200 120 337 232 269 224 311 181 196 192 196 144 164 183 215 80 28 154 148 183 265 263 258 148 217 230 128 289 211 258 221 290 245 301 87 144 226 296
255 269 279 289 318 350 238 54 310 338 258 247 299 349 259 235 245 242 200 184 169 144 132 113 134 113 221 5 8 343 245 191 160 176 181 185 250 51 340 304 309 323 276 204 133